User: anonymous   Login
Location: Casalecchio di Reno
(44.4760°N, 11.2757°E)
Time: 14:39:54
(UTC+02:00)
Language:

RS-15 - Orbit

View from above orbital plane
View from above orbital plane
View from above satellite
View from above satellite

Ground track
Ground track

The orbit data is extracted from the following two-line orbital elements,

1 23439U 94085A   24169.91207229 -.00000039  00000-0  99556-4 0  9992
2 23439  64.8187  42.5965 0150038 143.5922 217.5318 11.27577431213675
Epoch (UTC): 17 June 2024 21:53:23
Eccentricity: 0.0150038
inclination: 64.8187°
perigee height: 1896 km
apogee height: 2148 km
right ascension of ascending node: 42.5965°
argument of perigee: 143.5922°
revolutions per day: 11.27577431
mean anomaly at epoch: 217.5318°
orbit number at epoch: 21367

The dashed part of the orbit path shows where the satellite is in the earth's shadow,  

DLR